Location: State Camp
(41.2367°N, 77.7828°W)
Time: 01:54:42
(UTC-04:00)

HST - Visible Passes

Search period start: 23 October 2014 00:00
Search period end: 02 November 2014 00:00
Orbit: 546 x 550 km, 28.5° (Epoch: 22 October)

Date Brightness Start Highest point End Pass type
(mag) Time Alt. Az. Time Alt. Az. Time Alt. Az.
27 Oct 3.5 20:36:35 10° SSW 20:37:03 11° SSW 20:37:03 11° SSW visible
28 Oct 3.3 18:49:58 10° S 18:50:44 10° SSE 18:51:30 10° SSE visible
28 Oct 3.3 20:29:06 10° SSW 20:30:10 13° SSW 20:30:10 13° SSW visible
29 Oct 3.3 18:41:43 10° SSW 18:43:16 12° S 18:44:49 10° SSE visible
29 Oct 3.2 20:21:42 10° SW 20:23:16 14° SSW 20:23:16 14° SSW visible
30 Oct 3.2 18:33:52 10° SSW 18:35:48 13° S 18:37:44 10° SE visible
30 Oct 3.2 20:14:23 10° SW 20:16:23 13° S 20:16:23 13° S visible
31 Oct 3.3 20:07:12 10° SSW 20:08:57 12° S 20:09:31 12° S visible
01 Nov 3.4 20:00:15 10° SSW 20:01:27 11° SSW 20:02:40 10° S visible
